GW1000 Weather Reports


Display with metric or nautical units.
time (UTC)temp
F
wind
direction
speed
MPH
gust
MPH
rain 1hr
in
rain 24hr
in
rain mn
in
humidity
%
barometer
mb
20260502170149 70 41 1.0 1.0 0.00 0.00 0.00 68 1003.7
20260502164131 71 21 0.0 3.0 0.00 0.00 0.00 66 1003.8
20260502163627 71 355 5.0 6.0 0.00 0.00 0.00 66 1003.8
20260502163123 71 0 2.0 6.0 0.00 0.00 0.00 65 1003.7
20260502162619 71 343 5.0 7.0 0.00 0.00 0.00 64 1003.8
20260502162117 72 6 4.0 8.0 0.00 0.00 0.00 64 1003.7
20260502161614 72 348 4.0 7.0 0.00 0.00 0.00 63 1003.8
20260502161111 73 343 6.0 8.0 0.00 0.00 0.00 62 1003.5
20260502160609 73 347 6.0 7.0 0.00 0.00 0.00 62 1003.5
20260502160108 73 7 4.0 9.0 0.00 0.00 0.00 61 1003.8
20260502152022 76 349 5.0 8.0 0.00 0.00 0.00 51 1003.8
20260502151518 77 340 6.0 8.0 0.00 0.00 0.00 50 1004.3
20260502151016 78 269 6.0 11.0 0.00 0.00 0.00 49 1003.8
20260502150513 78 25 2.0 10.0 0.00 0.00 0.00 49 1003.9
20260502130347 78 342 6.0 11.0 0.00 0.00 0.00 33 1005.2
20260502123330 78 354 10.0 11.0 0.00 0.00 0.00 33 1005.6
20260502122827 80 351 5.0 8.0 0.00 0.00 0.00 32 1005.8
20260502122322 79 29 4.0 9.0 0.00 0.00 0.00 31 1005.8
20260502121821 80 314 4.0 10.0 0.00 0.00 0.00 31 1005.9
20260502121318 80 330 8.0 14.0 0.00 0.00 0.00 31 1005.6
20260502120815 78 28 6.0 13.0 0.00 0.00 0.00 30 1005.7
20260502120311 78 352 10.0 13.0 0.00 0.00 0.00 33 1005.8
20260502115809 79 334 8.0 9.0 0.00 0.00 0.00 30 1005.9
20260502115306 79 345 11.0 13.0 0.00 0.00 0.00 29 1006.0
20260502114802 80 69 5.0 10.0 0.00 0.00 0.00 30 1006.2
20260502114259 77 344 5.0 14.0 0.00 0.00 0.00 34 1006.2
20260502113756 78 348 7.0 14.0 0.00 0.00 0.00 36 1006.2
20260502113254 78 338 7.0 13.0 0.00 0.00 0.00 35 1006.3
20260502112751 77 335 13.0 17.0 0.00 0.00 0.00 36 1006.6
20260502112243 77 309 9.0 15.0 0.00 0.00 0.00 38 1006.8
20260502111740 78 40 9.0 16.0 0.00 0.00 0.00 38 1006.6
20260502111238 79 335 11.0 17.0 0.00 0.00 0.00 37 1006.5
20260502110735 80 325 9.0 13.0 0.00 0.00 0.00 38 1006.3
20260502110233 80 315 6.0 16.0 0.00 0.00 0.00 37 1006.6
20260502105731 82 301 11.0 13.0 0.00 0.00 0.00 34 1006.5
20260502105226 82 350 6.0 9.0 0.00 0.00 0.00 28 1006.5
20260502104724 84 347 9.0 10.0 0.00 0.00 0.00 29 1006.4
20260502104222 84 43 1.0 2.0 0.00 0.00 0.00 18 1006.5
20260502103720 84 340 7.0 8.0 0.00 0.00 0.00 18 1006.3
20260502103217 84 338 4.0 10.0 0.00 0.00 0.00 19 1006.5
20260502102713 84 150 0.0 2.0 0.00 0.00 0.00 18 1006.4
20260502102210 84 347 8.0 9.0 0.00 0.00 0.00 19 1006.4
20260502101708 84 283 5.0 6.0 0.00 0.00 0.00 19 1006.2
20260502101206 83 300 4.0 6.0 0.00 0.00 0.00 19 1006.2
20260502100704 85 314 9.0 10.0 0.00 0.00 0.00 18 1006.2
20260502100202 84 299 1.0 5.0 0.00 0.00 0.00 19 1006.5
20260502091136 81 279 1.0 3.0 0.00 0.00 0.00 18 1006.7
20260502090633 81 243 2.0 7.0 0.00 0.00 0.00 19 1006.9
20260502090131 84 251 3.0 3.0 0.00 0.00 0.00 18 1007.0
20260502071533 74 207 2.0 5.0 0.00 0.00 0.00 29 1008.2
20260502071031 75 253 5.0 6.0 0.00 0.00 0.00 31 1008.3
20260502070529 73 267 0.0 3.0 0.00 0.00 0.00 32 1008.2
20260502070027 73 225 4.0 6.0 0.00 0.00 0.00 34 1008.3
20260502065525 74 246 5.0 6.0 0.00 0.00 0.00 35 1008.4
20260502065023 73 233 2.0 2.0 0.00 0.00 0.00 37 1008.4
20260502064521 72 232 1.0 3.0 0.00 0.00 0.00 37 1008.4
20260502064018 72 188 3.0 6.0 0.00 0.00 0.00 38 1008.5
20260502063515 71 230 2.0 6.0 0.00 0.00 0.00 39 1008.6
20260502063013 71 264 1.0 2.0 0.00 0.00 0.00 41 1008.6
20260502062509 71 150 2.0 5.0 0.00 0.00 0.00 41 1009.0
20260502062009 70 280 3.0 7.0 0.00 0.00 0.00 42 1008.9
20260502061506 71 189 1.0 6.0 0.00 0.00 0.00 41 1008.8
20260502061002 71 164 1.0 3.0 0.00 0.00 0.00 42 1008.8
20260502060457 70 161 2.0 3.0 0.00 0.00 0.00 43 1008.9
20260502055954 70 188 5.0 6.0 0.00 0.00 0.00 43 1008.7
20260502055452 70 316 1.0 2.0 0.00 0.00 0.00 50 1008.9
20260502054952 69 2 1.0 1.0 0.00 0.00 0.00 53 1008.9
20260502054449 67 326 0.0 1.0 0.00 0.00 0.00 52 1008.8
20260502053946 67 326 1.0 2.0 0.00 0.00 0.00 55 1008.7
20260502053443 66 9 1.0 1.0 0.00 0.00 0.00 58 1008.4
20260502052941 67 10 0.0 0.0 0.00 0.00 0.00 63 1008.6
20260502052439 64 10 0.0 1.0 0.00 0.00 0.00 67 1008.7
20260502051937 64 9 0.0 1.0 0.00 0.00 0.00 68 1008.7
20260502051435 64 18 0.0 1.0 0.00 0.00 0.00 68 1008.6
20260502050932 64 18 0.0 1.0 0.00 0.00 0.00 70 1008.5
20260502050423 64 1 1.0 1.0 0.00 0.00 0.00 70 1008.7
20260502045920 62 25 0.0 1.0 0.00 0.00 0.00 72 1008.6
20260502045417 62 45 3.0 3.0 0.00 0.00 0.00 72 1008.4
20260502044914 61 32 2.0 2.0 0.00 0.00 0.00 73 1008.6
20260502044409 61 34 1.0 2.0 0.00 0.00 0.00 74 1008.5
20260502043906 60 39 0.0 2.0 0.00 0.00 0.00 75 1008.8
20260502043404 59 97 1.0 3.0 0.00 0.00 0.00 77 1008.7
20260502042903 58 51 0.0 2.0 0.00 0.00 0.00 78 1008.9
20260502042400 57 196 0.0 1.0 0.00 0.00 0.00 80 1008.7
20260502041858 56 42 0.0 1.0 0.00 0.00 0.00 82 1009.0
20260502041355 55 330 1.0 2.0 0.00 0.00 0.00 83 1008.9
20260502040852 55 80 1.0 3.0 0.00 0.00 0.00 84 1009.1
20260502040349 55 351 1.0 2.0 0.00 0.00 0.00 85 1009.1
20260502035845 54 155 2.0 2.0 0.00 0.00 0.00 86 1009.4
20260502035342 54 1 0.0 2.0 0.00 0.00 0.00 86 1009.4
20260502034839 54 0 0.0 1.0 0.00 0.00 0.00 86 1009.3
20260502034338 54 1 1.0 1.0 0.00 0.00 0.00 87 1009.4
20260502033836 54 39 0.0 1.0 0.00 0.00 0.00 87 1009.4
20260502033334 53 59 0.0 2.0 0.00 0.00 0.00 87 1009.3
20260502032830 53 8 0.0 1.0 0.00 0.00 0.00 87 1009.2
20260502032326 53 358 0.0 1.0 0.00 0.00 0.00 87 1009.2
20260502031824 53 353 0.0 2.0 0.00 0.00 0.00 87 1009.2
20260502031322 53 6 0.0 2.0 0.00 0.00 0.00 87 1008.9
20260502030820 53 30 1.0 2.0 0.00 0.00 0.00 88 1008.9
20260502030318 53 115 2.0 2.0 0.00 0.00 0.00 88 1008.9
20260502025814 53 107 2.0 2.0 0.00 0.00 0.00 88 1008.9
20260502025313 53 40 0.0 0.0 0.00 0.00 0.00 88 1008.8
20260502024810 54 55 1.0 2.0 0.00 0.00 0.00 88 1008.6
20260502024308 54 87 0.0 2.0 0.00 0.00 0.00 88 1008.9
20260502023805 54 55 0.0 2.0 0.00 0.00 0.00 88 1008.6
20260502023303 54 78 0.0 1.0 0.00 0.00 0.00 88 1008.8
20260502022800 54 103 2.0 3.0 0.00 0.00 0.00 88 1008.3
20260502022256 54 72 0.0 1.0 0.00 0.00 0.00 88 1008.5
20260502021754 54 93 0.0 1.0 0.00 0.00 0.00 88 1008.5
20260502021251 54 73 0.0 1.0 0.00 0.00 0.00 88 1008.2
20260502020748 54 73 0.0 1.0 0.00 0.00 0.00 88 1008.1
20260502020245 54 58 0.0 0.0 0.00 0.00 0.00 88 1008.1
20260502015743 54 98 0.0 1.0 0.00 0.00 0.00 88 1008.1
20260502015239 54 131 2.0 3.0 0.00 0.00 0.00 88 1008.0
20260502014737 54 102 1.0 1.0 0.00 0.00 0.00 88 1008.2
20260502014233 54 73 0.0 2.0 0.00 0.00 0.00 88 1008.4
20260502013730 54 95 1.0 2.0 0.00 0.00 0.00 88 1008.3
20260502013225 54 95 2.0 2.0 0.00 0.00 0.00 88 1008.4
20260502012722 54 79 1.0 2.0 0.00 0.00 0.00 89 1008.1
20260502012220 54 40 0.0 1.0 0.00 0.00 0.00 89 1008.2
20260502011717 54 85 0.0 0.0 0.00 0.00 0.00 89 1008.3
20260502011213 54 92 0.0 1.0 0.00 0.00 0.00 89 1008.1
20260502010711 55 47 0.0 0.0 0.00 0.00 0.00 89 1008.1
20260502010207 55 52 0.0 1.0 0.00 0.00 0.00 89 1008.2
20260502005704 55 61 0.0 0.0 0.00 0.00 0.00 89 1008.5
20260502005202 55 101 1.0 1.0 0.00 0.00 0.00 89 1008.5
20260502004657 55 68 0.0 1.0 0.00 0.00 0.00 88 1008.4
20260502004154 55 72 0.0 2.0 0.00 0.00 0.00 88 1008.5
20260502003652 55 110 1.0 5.0 0.00 0.00 0.00 88 1008.7
20260502003149 55 72 0.0 3.0 0.00 0.00 0.00 88 1008.8
20260502002645 55 114 2.0 3.0 0.00 0.00 0.00 88 1008.6
20260502002143 56 93 3.0 3.0 0.00 0.00 0.00 88 1008.6
20260502001640 55 73 0.0 0.0 0.00 0.00 0.00 88 1008.5
20260502001137 56 73 0.0 0.0 0.00 0.00 0.00 88 1008.5
20260502000635 56 74 0.0 0.0 0.00 0.00 0.00 89 1008.5
20260502000133 55 102 0.0 0.0 0.00 0.00 0.00 88 1008.6
20260501235629 55 112 0.0 0.0 0.00 0.00 0.00 89 1008.5
20260501235125 56 12 0.0 0.0 0.00 0.00 0.00 88 1008.5
20260501234620 56 15 0.0 0.0 0.00 0.00 0.00 88 1008.5
20260501234118 56 19 0.0 0.0 0.00 0.00 0.00 88 1008.7
20260501233616 56 26 0.0 0.0 0.00 0.00 0.00 88 1008.6
20260501233113 56 98 0.0 0.0 0.00 0.00 0.00 88 1008.3
20260501232609 56 226 0.0 0.0 0.00 0.00 0.00 88 1008.9
20260501232107 56 22 0.0 0.0 0.00 0.00 0.00 88 1008.5
20260501231604 56 30 0.0 0.0 0.00 0.00 0.00 88 1008.8
20260501231102 56 87 1.0 2.0 0.00 0.00 0.00 88 1008.9
20260501230600 56 123 0.0 0.0 0.00 0.00 0.00 88 1008.9
20260501230058 57 106 2.0 3.0 0.00 0.00 0.00 88 1009.1
20260501225555 57 106 0.0 1.0 0.00 0.00 0.00 88 1008.9
20260501225051 57 63 0.0 0.0 0.00 0.00 0.00 88 1008.9
20260501224549 57 49 0.0 0.0 0.00 0.00 0.00 87 1009.1
20260501224046 57 7 1.0 1.0 0.00 0.00 0.00 87 1009.1
20260501223542 57 89 0.0 0.0 0.00 0.00 0.00 87 1009.2
20260501223038 57 82 0.0 2.0 0.00 0.00 0.00 87 1009.4
20260501222535 57 119 1.0 2.0 0.00 0.00 0.00 87 1009.5
20260501222032 57 62 0.0 2.0 0.00 0.00 0.00 87 1009.5
20260501221528 57 111 3.0 3.0 0.00 0.00 0.00 87 1009.5
20260501221026 58 52 0.0 0.0 0.00 0.00 0.00 87 1009.7
20260501220524 57 23 0.0 0.0 0.00 0.00 0.00 86 1009.8
20260501220020 58 34 0.0 0.0 0.00 0.00 0.00 86 1009.7
20260501215516 58 93 0.0 0.0 0.00 0.00 0.00 86 1009.5
20260501215012 58 112 0.0 0.0 0.00 0.00 0.00 86 1009.5
20260501214508 58 106 0.0 0.0 0.00 0.00 0.00 86 1009.7
20260501214004 58 17 0.0 0.0 0.00 0.00 0.00 86 1009.5
20260501213501 58 11 0.0 0.0 0.00 0.00 0.00 86 1009.8
20260501212955 58 58 0.0 3.0 0.00 0.00 0.00 86 1009.8
20260501212453 58 147 2.0 5.0 0.00 0.00 0.00 85 1009.8
20260501211950 58 44 1.0 2.0 0.00 0.00 0.00 85 1009.7
20260501211447 58 137 0.0 0.0 0.00 0.00 0.00 85 1009.5
20260501210945 58 24 0.0 0.0 0.00 0.00 0.00 85 1009.9
20260501210441 58 34 0.0 1.0 0.00 0.00 0.00 85 1009.9
20260501205938 59 75 0.0 1.0 0.00 0.00 0.00 85 1009.9
20260501205434 59 117 3.0 3.0 0.00 0.00 0.00 85 1010.1
20260501204932 59 103 0.0 0.0 0.00 0.00 0.00 84 1010.1
20260501204427 59 66 0.0 0.0 0.00 0.00 0.00 84 1009.9
20260501203924 59 68 0.0 0.0 0.00 0.00 0.00 84 1010.0
20260501203421 59 79 0.0 0.0 0.00 0.00 0.00 84 1010.0
20260501202918 59 84 0.0 1.0 0.00 0.00 0.00 84 1010.1
20260501202415 59 55 0.0 0.0 0.00 0.00 0.00 84 1010.3
20260501201912 59 92 2.0 2.0 0.00 0.00 0.00 84 1010.1
20260501201409 59 76 0.0 0.0 0.00 0.00 0.00 84 1010.0
20260501200905 59 71 0.0 1.0 0.00 0.00 0.00 84 1009.9
20260501200402 59 46 0.0 0.0 0.00 0.00 0.00 84 1010.0
20260501195900 59 44 0.0 0.0 0.00 0.00 0.00 84 1010.1
20260501195355 59 44 0.0 0.0 0.00 0.00 0.00 84 1010.0
20260501194852 60 44 0.0 0.0 0.00 0.00 0.00 84 1010.2
20260501194348 60 84 1.0 3.0 0.00 0.00 0.00 84 1009.9
20260501193844 60 28 1.0 2.0 0.00 0.00 0.00 84 1009.7
20260501193343 60 17 0.0 0.0 0.00 0.00 0.00 84 1009.9
20260501192840 60 17 0.0 0.0 0.00 0.00 0.00 84 1010.1
20260501192337 60 17 0.0 0.0 0.00 0.00 0.00 84 1009.8
20260501191834 60 16 0.0 0.0 0.00 0.00 0.00 83 1010.0
20260501191331 61 31 0.0 0.0 0.00 0.00 0.00 83 1010.2
20260501190828 60 34 0.0 1.0 0.00 0.00 0.00 83 1010.1
20260501190324 61 25 0.0 1.0 0.00 0.00 0.00 83 1010.3
20260501185819 61 25 0.0 0.0 0.00 0.00 0.00 82 1010.0
20260501185316 61 26 0.0 0.0 0.00 0.00 0.00 82 1010.2
20260501184812 61 27 1.0 1.0 0.00 0.00 0.00 82 1009.9
20260501184308 62 52 0.0 1.0 0.00 0.00 0.00 82 1010.1
20260501183803 62 332 0.0 0.0 0.00 0.00 0.00 82 1009.8
20260501183301 62 332 0.0 0.0 0.00 0.00 0.00 82 1009.9
20260501182757 62 332 0.0 0.0 0.00 0.00 0.00 82 1009.8
20260501182254 62 332 0.0 0.0 0.00 0.00 0.00 81 1009.8
20260501181750 62 332 0.0 0.0 0.00 0.00 0.00 81 1009.7
20260501181248 63 332 0.0 0.0 0.00 0.00 0.00 81 1009.7
20260501180746 63 332 0.0 1.0 0.00 0.00 0.00 80 1009.7
20260501180241 63 331 0.0 0.0 0.00 0.00 0.00 80 1009.4
20260501175738 63 331 0.0 0.0 0.00 0.00 0.00 80 1009.9
20260501175236 63 331 0.0 0.0 0.00 0.00 0.00 80 1010.0
20260501174732 63 331 0.0 1.0 0.00 0.00 0.00 80 1009.9
20260501174229 63 331 0.0 0.0 0.00 0.00 0.00 79 1009.9
20260501173727 63 331 0.0 0.0 0.00 0.00 0.00 79 1009.9
20260501173224 64 330 0.0 1.0 0.00 0.00 0.00 79 1009.7
20260501172720 64 320 1.0 2.0 0.00 0.00 0.00 78 1009.7
20260501172215 64 292 2.0 3.0 0.00 0.00 0.00 78 1009.8
20260501171711 64 304 2.0 3.0 0.00 0.00 0.00 77 1009.4
20260501171209 64 288 2.0 3.0 0.00 0.00 0.00 77 1009.5